Home   Weather   Saint-Hyacinthe   Past weeks

Flag for Canada Past Weather in Saint-Hyacinthe, Quebec, Canada — Yesterday and Last 2 Weeks

Now
34 °F

Overcast.


Feels Like: 26 °F
Forecast: 30 / 36 °F
Wind: 10 mph from Northeast

Location: Saint Hubert Airport

Current Time: Jan 22, 2017 at 11:40:00 am

Latest Report: Jan 22, 2017 at 11:21 am


Visibility: 9 mi

Pressure: 29.88 "Hg

Humidity: 81%

Dew Point: 28 °F

Location of Saint-HyacintheLocation

Past Weather in Saint-Hyacinthe — Graph

°F

Saint-Hyacinthe Temperature Yesterday

Maximum temperature yesterday: 36 °F (at 3:02 am)
Minimum temperature yesterday: 34 °F (at 12:09 am)
Average temperature yesterday: 34 °F

High & Low Weather Summary for the Past Weeks

 TemperatureHumidityPressure
High43 °F (Jan 12, 12:00 am)100% (Jan 12, 9:31 am)30.80 "Hg (Jan 12, 9:31 am)
Low-15 °F (Jan 8, 5:00 am)38% (Jan 13, 3:00 pm)29.64 "Hg (Jan 11, 5:07 am)
Average25 °F80%30.12 "Hg
* Reported Jan 7 10:00 am — Jan 22 10:00 am, Saint-Hyacinthe, Weather by CustomWeather, © 2017

Note: Actual official high and low records may vary slightly from our data, if they occured in-between our weather recording intervals... More about our weather records

Advertising

Saint-Hyacinthe Weather History for the Previous 24 Hours

Scroll right to see more
 ConditionsComfort  
Time TempWeatherWind HumidityBarometerVisibility
10:00 am
Sun, Jan 22
34 °FOvercast.8 mph87%29.89 "Hg9 mi
9:00 am32 °FOvercast.7 mph93%29.89 "Hg9 mi
8:00 am32 °FOvercast.7 mph93%29.86 "Hg9 mi
7:00 am32 °FIce fog.7 mph93%29.84 "Hg6 mi
6:44 am32 °FIce fog.5 mph93%29.84 "Hg6 mi
6:31 am32 °FIce fog.6 mph93%29.83 "Hg6 mi
6:00 am32 °FIce fog.7 mph93%29.83 "Hg5 mi
5:37 am32 °FIce fog.7 mph93%29.83 "Hg5 mi
5:00 am32 °FIce fog.7 mph93%29.83 "Hg6 mi
4:02 am32 °FIce fog.7 mph93%29.83 "Hg6 mi
3:34 am32 °FIce fog.7 mph93%29.83 "Hg4 mi
3:00 am32 °FIce fog.6 mph93%29.83 "Hg3 mi
2:34 am32 °FIce fog.6 mph100%29.82 "Hg6 mi
2:06 am32 °FIce fog.7 mph100%29.82 "Hg3 mi
1:26 am32 °FIce fog.9 mph100%29.80 "Hg2 mi
1:00 am32 °FIce fog.8 mph100%29.79 "Hg1 mi
12:23 am32 °FIce fog.8 mph100%29.80 "Hg1 mi
12:00 am34 °FLight rain. Fog.7 mph100%29.79 "Hg1 mi
11:41 pm
Sat, Jan 21
34 °FLight rain. Fog.6 mph100%29.80 "Hg1 mi
11:24 pm34 °FLight rain. Fog.5 mph100%29.80 "Hg1 mi
10:24 pm36 °FFog.No wind100%29.79 "Hg1 mi
9:00 pm34 °FFog.3 mph100%29.78 "Hg1 mi
8:00 pm36 °FFog.2 mph100%29.78 "Hg1 mi
7:00 pm34 °FLight rain. Fog.No wind100%29.79 "Hg0 mi
6:44 pm34 °FFog.No wind100%29.80 "Hg1 mi
6:03 pm34 °FLight rain. Fog.No wind100%29.79 "Hg1 mi
5:29 pm34 °FLight rain. Fog.No wind100%29.78 "Hg1 mi
5:21 pm34 °FFog.2 mph100%29.77 "Hg1 mi
4:42 pm34 °FFog.2 mph100%29.75 "Hg1 mi
4:13 pm34 °FFog.2 mph100%29.75 "Hg1 mi
3:00 pm36 °FFog.2 mph100%29.75 "Hg1 mi
2:06 pm36 °FLight rain. Fog.3 mph100%29.75 "Hg1 mi
1:00 pm36 °FFog.6 mph100%29.73 "Hg1 mi
12:00 pm36 °FFog.3 mph93%29.75 "Hg1 mi
11:00 am34 °FFog.No wind100%29.78 "Hg1 mi
Weather by CustomWeather, © 2017

See weather overviewHow to use our weather pages